Hourly Data Report for September 03, 2017

All times are specified in Local Standard Time (LST). Add 1 hour to adjust for Daylight Saving Time where and when it is observed.

CORAL HARBOUR A
NUNAVUT

64°11'36.000" N
83°21'34.000" W
62.20 m
2301002
71915
YZS

Download Data

Hourly Data (September 2017)
Hourly Data Report for September 3, 2017
Temp Definition
°C
Dew Point Temp Definition
°C
Rel Hum Definition
%
Wind Dir Definition
10's deg

Wind Spd Definition
km/h
Visibility Definition
km
Stn Press Definition
kPa
Hmdx Definition


Wind Chill Definition


Weather Definition


TIME
00:00 Legend Double Dagger 5.7 5.0 95 7 39 24.1 98.89     LegendNANA
01:00 Legend Double Dagger 5.1 4.5 96 8 41 24.1 98.88     Cloudy
02:00 Legend Double Dagger 5.2 4.5 95 7 43 19.3 98.90     LegendNANA
03:00 Legend Double Dagger 5.1 4.7 97 7 40 9.7 98.95     Drizzle,Fog
04:00
05:00
06:00
07:00 Legend Double Dagger 5.5 5.1 98 7 28 6.4 99.02     Drizzle,Fog
08:00 Legend Double Dagger 6.0 5.4 96 7 37 19.3 98.99     Rain
09:00 Legend Double Dagger 7.5 6.4 93 6 41 24.1 98.99     Rain
10:00 Legend Double Dagger 7.7 6.1 89 6 49 24.1 99.02     Mostly Cloudy
11:00 Legend Double Dagger 8.0 6.2 88 7 39 24.1 99.09     LegendNANA
12:00 Legend Double Dagger 8.0 6.3 89 6 36 24.1 99.09     Rain
13:00 Legend Double Dagger 6.8 5.2 90 6 35 24.1 99.14     Rain
14:00 Legend Double Dagger 7.2 5.5 88 5 30 24.1 99.15     LegendNANA
15:00 Legend Double Dagger 8.0 5.7 85 5 45 24.1 99.17     LegendNANA
16:00 Legend Double Dagger 7.5 5.2 86 5 45 24.1 99.24     Rain
17:00 Legend Double Dagger 6.6 4.5 86 6 37 24.1 99.31     Rain
18:00 Legend Double Dagger 6.0 3.7 85 4 39 24.1 99.37     LegendNANA
19:00 Legend Double Dagger 4.6 2.6 87 5 44 24.1 99.41     Cloudy
20:00 Legend Double Dagger 3.6 1.7 88 4 50 24.1 99.44     LegendNANA
21:00 Legend Double Dagger 2.8 0.7 86 3 42 24.1 99.50     LegendNANA
22:00 Legend Double Dagger 3.0 1.0 86 1 32 24.1 99.53     Mostly Cloudy
23:00 Legend Double Dagger 3.1 0.9 86 3 38 24.1 99.56     LegendNANA

Notes on Data Quality.

Legend

  • E = Estimated
  • M = Missing
  • NA = Not Available
  • ‡ = Partner data that is not subject to review by the National Climate Archives
Date modified: